Weather in Kakmozh

Russia / Udmurt Republic     56°51′07″N   51°51′15″E
temp.,
°C
wind,
m/s
gust,
m/s
humid.,
%
clouds,
%
prec.,
mm/h
press.,
hPa
HPBL,
m
18 may, tue
tue1801:00+16n33833 0.1 101730
04:00+14nne228825 0.1 101830
07:00+17ne357745 0.0 1019190
10:00+22nne3356100 0.0 1018758
13:00+25nne344170 0.0 10191434
16:00+25nne343691 0.0 10191552
19:00+22ne485665 0.0 1018165
22:00+17e513665 0.0 1020316
19 may, wed
wed1901:00+14e411785 0.0 1020203
04:00+12e410815 0.0 1020182
07:00+15e510775 0.0 1021367
10:00+20ese68575 0.0 1021888
13:00+23ese67435 0.0 10211297
16:00+24se56405 0.0 10201452
19:00+21ese37584 0.0 1020185
22:00+16ese496566 0.0 1020134
20 may, thu
thu2001:00+14se39670 0.0 1020138
04:00+13se37700 0.0 1020106
07:00+17ese37655 0.0 1020205
10:00+22se45473 0.0 1019908
13:00+24se67390 0.0 10182025
16:00+24se68400 0.0 10172096
19:00+21se49550 0.0 1016308
22:00+16ese4116366 0.0 1015190
21 may, fri
fri2101:00+15ese5146156 0.0 1014321
04:00+14sse4117151 0.0 1014321
07:00+16s588123 0.0 1014543
10:00+20s576030 0.1 10141443
13:00+22s685354 0.4 10141986
16:00+21ssw6953100 0.5 10131626
19:00+19ssw48698 0.6 1013600
22:00+14s39858 0.7 1014160
22 may, sat
sat2201:00+14sw4989100 0.0 1014262
04:00+11sw4995100 0.0 1016253
07:00+14wsw478465 0.0 1018506
10:00+17w5670100 0.0 10181075
13:00+18w5656100 0.1 10201629
16:00+19w4551100 0.1 10201552
19:00+17wnw2462100 0.0 102085
22:00+14nnw0067100 0.0 102010